Weather History for Manchester, NH

Change the Weather History Date:

Friday, August 2, 2013

  Actual Average Record
Temperature  
Mean Temperature 73 °F -  
Max Temperature 84 °F 82 °F 98 °F (2006)
Min Temperature 64 °F 60 °F 39 °F (1953)
Cooling Degree Days 8    
Growing Degree Days 23 (Base 50)    
Moisture  
Dew Point 61 °F    
Average Humidity 76    
Maximum Humidity 100    
Minimum Humidity 34    
Precipitation  
Precipitation 0.74 in - - ()
Sea Level Pressure  
Sea Level Pressure 29.83 in    
Wind  
Wind Speed 5 mph (SSW)    
Max Wind Speed 12 mph    
Max Gust Speed 18 mph    
Visibility 6 miles    
Events Rain    
Averages and records for this station are not official NWS values.
T = Trace of Precipitation, MM = Missing Value Source: NWS Daily Summary

Daily Weather History Graph

Daily Weather History Graph

Search for Another Location

Airport:

Trip Planner

Search our weather history database for the weather conditions in past years. The results will help you decide how hot, cold, wet, or windy it might be!

Date:

Astronomy

Aug. 02, 2013 Rise Set
Actual Time 5:38 AM EDT 8:05 PM EDT
Civil Twilight 5:05 AM EDT 8:37 PM EDT
Nautical Twilight 4:26 AM EDT 9:16 PM EDT
Astronomical Twilight 3:41 AM EDT 10:01 PM EDT
Moon 1:55 AM EDT (8/2) 5:01 PM EDT (8/2)
Length of Visible Light 15h 31m
Length of Day
14h 27m
Waning Crescent, 16% of the Moon is Illuminated
Aug 2
Waning Crescent
Aug 6
New
Aug 14
First Quarter
Aug 20
Full
Aug 28
Last Quarter

Hourly Weather History & Observations

Time (EDT) Temp. Heat Index Dew Point Humidity Pressure Visibility Wind Dir Wind Speed Gust Speed Precip Events Conditions
12:36 AM 64.4 °F - 64.4 °F 100% 29.85 in 1.5 mi SSE 4.6 mph - 0.08 in Rain Rain
12:53 AM 66.0 °F - 64.0 °F 93% 29.88 in 1.5 mi SSE 3.5 mph - 0.12 in Rain Light Rain
1:33 AM 64.4 °F - 64.4 °F 100% 29.83 in 1.0 mi SSE 4.6 mph - 0.14 in Rain Light Rain
1:53 AM 66.0 °F - 64.0 °F 93% 29.86 in 2.5 mi South 6.9 mph - 0.18 in Rain Rain
2:09 AM 66.2 °F - 64.4 °F 94% 29.82 in 2.5 mi South 6.9 mph - 0.06 in Rain Rain
2:15 AM 66.2 °F - 64.4 °F 94% 29.82 in 1.5 mi SSE 8.1 mph - 0.08 in Rain Rain
2:53 AM 64.9 °F - 64.0 °F 97% 29.84 in 2.5 mi South 5.8 mph - 0.18 in Rain Rain
3:53 AM 64.9 °F - 64.0 °F 97% 29.83 in 1.5 mi South 6.9 mph - 0.15 in Rain Light Rain
4:07 AM 64.4 °F - 62.6 °F 94% 29.79 in 3.0 mi South 4.6 mph - 0.02 in Rain Light Rain
4:23 AM 64.4 °F - 62.6 °F 94% 29.79 in 2.0 mi South 4.6 mph - 0.04 in Rain Light Rain
4:53 AM 64.9 °F - 63.0 °F 93% 29.83 in 2.5 mi South 6.9 mph - 0.07 in Rain Light Rain
5:44 AM 64.4 °F - 64.4 °F 100% 29.81 in 1.0 mi South 3.5 mph - 0.04 in Rain Light Rain
5:53 AM 64.9 °F - 64.0 °F 97% 29.84 in 1.0 mi South 5.8 mph - 0.04 in   Overcast
5:59 AM 64.4 °F - 62.6 °F 94% 29.81 in 2.0 mi South 5.8 mph - N/A   Overcast
6:53 AM 64.9 °F - 64.0 °F 97% 29.84 in 2.5 mi South 5.8 mph - N/A   Overcast
7:53 AM 66.0 °F - 64.0 °F 93% 29.85 in 2.5 mi South 4.6 mph - N/A   Overcast
8:53 AM 66.9 °F - 64.0 °F 90% 29.85 in 3.0 mi WSW 4.6 mph - N/A   Overcast
9:06 AM 66.2 °F - 64.4 °F 94% 29.81 in 10.0 mi Calm Calm - N/A   Mostly Cloudy
9:53 AM 71.1 °F - 64.9 °F 81% 29.84 in 10.0 mi WNW 3.5 mph - N/A   Mostly Cloudy
10:07 AM 71.6 °F - 64.4 °F 78% 29.81 in 10.0 mi Calm Calm - N/A   Mostly Cloudy
10:39 AM 73.4 °F - 62.6 °F 69% 29.81 in 10.0 mi NNW 3.5 mph - N/A   Scattered Clouds
10:53 AM 75.0 °F - 64.0 °F 69% 29.83 in 10.0 mi Variable 4.6 mph - N/A   Scattered Clouds
11:53 AM 78.1 °F - 63.0 °F 60% 29.83 in 10.0 mi Variable 3.5 mph - N/A   Scattered Clouds
12:53 PM 79.0 °F - 62.1 °F 56% 29.82 in 10.0 mi Variable 6.9 mph - N/A   Scattered Clouds
1:53 PM 81.0 °F 81.6 °F 60.1 °F 49% 29.81 in 10.0 mi West 11.5 mph 17.3 mph N/A   Scattered Clouds
2:53 PM 82.9 °F - 52.0 °F 34% 29.81 in 10.0 mi West 8.1 mph 18.4 mph N/A   Scattered Clouds
3:53 PM 82.9 °F 81.9 °F 54.0 °F 37% 29.80 in 10.0 mi West 11.5 mph 17.3 mph N/A   Partly Cloudy
4:53 PM 82.9 °F - 52.0 °F 34% 29.80 in 10.0 mi WSW 9.2 mph - N/A   Partly Cloudy
5:53 PM 82.0 °F 81.3 °F 54.0 °F 38% 29.81 in 10.0 mi West 10.4 mph - N/A   Partly Cloudy
6:53 PM 79.0 °F - 54.0 °F 42% 29.82 in 10.0 mi WSW 6.9 mph - N/A   Partly Cloudy
7:53 PM 77.0 °F - 55.0 °F 47% 29.84 in 10.0 mi West 4.6 mph - N/A   Partly Cloudy
8:53 PM 75.0 °F - 54.0 °F 48% 29.86 in 10.0 mi SW 3.5 mph - N/A   Scattered Clouds
9:53 PM 72.0 °F - 55.9 °F 57% 29.87 in 10.0 mi South 3.5 mph - N/A   Mostly Cloudy
10:53 PM 70.0 °F - 57.9 °F 65% 29.87 in 10.0 mi South 3.5 mph - N/A   Mostly Cloudy
11:53 PM 68.0 °F - 59.0 °F 73% 29.87 in 10.0 mi SSE 3.5 mph - N/A   Partly Cloudy